Location: Maccacari
(45.1333°N, 11.1333°E)
Time: 03:29:16
(UTC+00:00)

Altair - Pass Details

Date: 24 January 2021
Orbit: 1501 x 1682 km, 47.2° (Epoch: 01 March)

Event Time Altitude Azimuth Distance (km) Brightness Sun altitude
Rises 09:10:06 0° 288° (WNW) 4,936 9.7 18.5°
Reaches altitude 10° 09:13:16 10° 288° (WNW) 3,949 9.3 18.9°
Maximum altitude 09:23:28 81° 204° (SSW) 1,692 8.2 19.8°
Drops below altitude 10° 09:33:27 10° 118° (ESE) 3,874 10.7 20.7°
Sets 09:36:32 0° 118° (ESE) 4,838 11.0 21.0°
